Weather Service Report


277 
ASUS45 KBOU 281907
RWRCO 

WEATHER ROUNDUP FOR COLORADO
NATIONAL WEATHER SERVICE DENVER/BOULDER CO
100 PM MDT FRI JUL 28 2017

NOTE: "FAIR" INDICATES FEW OR NO CLOUDS BELOW 12000 FEET WITH NO
SIGNIFICANT WEATHER AND/OR OBSTRUCTIONS TO VISIBILITY.

COZ001>005-013-030-031-282000-
...NORTHWEST COLORADO...
  
CITY           SKY/WX    TMP DP  RH WIND       PRES   REMARKS
CRAIG          FAIR      84  42  22 E7        30.24F                  
HAYDEN         FAIR      79  39  24 W5        30.27S                  
MEEKER         FAIR      86  42  21 MISG      30.24F                  
RABBIT EARS PA FAIR      63  39  42 NW7       30.58F                  
STEAMBOAT SPGS FAIR      80  43  26 W6        30.28F                  
WALDEN         FAIR      75  39  27 NW5       30.39F                  
$$

COZ006>008-011-282000-
...WEST CENTRAL VALLEYS...
  
CITY           SKY/WX    TMP DP  RH WIND       PRES   REMARKS
GRAND JUNCTION FAIR      91  50  24 W9        30.09F                  
MONTROSE       FAIR      83  49  30 W8        30.19F                  
EAGLE          MOSUNNY   82  46  28 S8        30.24F                  
RIFLE          FAIR      85  49  28 SW6       30.15F                  
DELTA          FAIR      88  49  26 SE5       30.15F                  
NUCLA          FAIR      81  46  30 N5        30.25F                  
$$

COZ017>023-064>068-282000-
...SOUTHWEST COLORADO...
  
CITY           SKY/WX    TMP DP  RH WIND       PRES   REMARKS
DURANGO        FAIR      78  47  33 SW8       30.24F                  
CORTEZ         CLOUDY    77  53  43 NE9       30.23F                  
PAGOSA SPRINGS PTSUNNY   76  50  39 SW8       30.31F                  
TELLURIDE      CLOUDY    68  49  51 W12       30.46F                  
WOLF CREEK PAS CLOUDY    54  45  71 N7        30.70S                  
$$

COZ009-010-012-014-032>034-037-058>063-282000-
...CENTRAL COLORADO...
  
CITY           SKY/WX    TMP DP  RH WIND       PRES   REMARKS
ASPEN          FAIR      80  45  28 VRB6      30.32F                  
BUENA VISTA    PTSUNNY   74  42  31 W17       30.34F                  
COPPER MTN     CLOUDY    61  41  48 NW10G17   30.68F                  
BERTHOUD PASS  PTSUNNY   54  43  66 NE6G20    30.72F THUNDER          
COTTONWOOD PAS CLOUDY    61  45  55 SW18G25   30.51F                  
GUNNISON       FAIR      78  48  34 VRB3      30.31F                  
KREMMLING      FAIR      84  41  21 CALM      30.32F                  
LEADVILLE      LGT RAIN  62  44  51 NW10G22   30.46F                  
SALIDA         FAIR      80  46  29 SE5       30.36F                  
SUNLIGHT       CLOUDY    59  46  63 CALM      30.62S                  
WILKERSON PASS CLOUDY    63  41  45 N5        30.65F                  
$$

COZ069>075-282000-
...SAN LUIS VALLEY/SANGRE DE CRISTO MOUNTAINS...
  
CITY           SKY/WX    TMP DP  RH WIND       PRES   REMARKS
ALAMOSA        PTSUNNY   75  51  43 VRB3      30.30F                  
DEL NORTE      FAIR      77  49  36 E5G10     30.34F                  
LA VETA PASS   NOT AVBL                                               
SAGUACHE         N/A    N/A N/A N/A MISG        N/A                   
$$

COZ035-036-038>040-282000-
...NORTHERN COLORADO FRONT RANGE...
  
CITY           SKY/WX    TMP DP  RH WIND       PRES   REMARKS
DENVER INTL AP FAIR      88  53  30 N12       30.15F                  
DMNS CITY PARK   N/A     86  47  26 E9        30.14F                  
AURORA         MOSUNNY   85  52  32 E3        30.17F                  
FRONT RANGE AP FAIR      86  52  30 NE8       30.16F                  
ERIE MUNI ARPT FAIR      85  52  31 E3        30.13F                  
BOULDER MUN AP FAIR      81  55  41 CALM      30.14F                  
CENTENNIAL     FAIR      84  54  35 VRB6      30.19F                  
BROOMFIELD     FAIR      82  52  34 E5        30.18F                  
FORT COLLINS   FAIR      83  59  44 VRB7      30.13F                  
LONGMONT       FAIR      87  57  36 CALM      30.15F                  
$$

COZ041-046-047-076>085-087-088-282000-
...PIKES PEAK/PALMER DIVIDE AND SOUTHERN FOOTHILLS...
  
CITY           SKY/WX    TMP DP  RH WIND       PRES   REMARKS
COLO. SPRINGS  PTSUNNY   81  63  54 S9        30.23S                  
A. F. ACADEMY  FAIR      77  58  51 S15       30.23S                  
SCHRIEVER AFB  FAIR      80  55  42 E9        30.23S                  
CHEYENNE MTN   LGT RAIN  73  59  60 CALM      30.24S                  
ELLICOTT       FAIR     N/A N/A N/A E5        30.21F                  
FALCON           N/A     79  54  41 E6        30.29R                  
FORT CARSON    PTSUNNY   80  64  56 SE5       30.20S                  
LIMON          FAIR      82  64  54 SE9       30.16F                  
MONUMENT HILL  FAIR      77  54  44 E6        30.30F                  
CANON CITY     SUNNY     84  64  51 E12       30.16S                  
WALSENBURG     FAIR      88  54  31 NE3       30.20F                  
TRINIDAD       FAIR      86  50  28 E10G16    30.17F                  
$$

COZ042>045-048>051-090-091-282000-
...NORTHEAST COLORADO...
  
CITY           SKY/WX    TMP DP  RH WIND       PRES   REMARKS
GREELEY ARPT   FAIR      84  62  47 VRB3      30.11F                  
AKRON          NOT AVBL                                               
BURLINGTON     FAIR      85  67  54 S8G18     30.10F                  
WRAY           NOT AVBL                                               
YUMA           FAIR      84  52  32 SE3       30.07F                  
STERLING       FAIR      82  68  61 N6        30.07F                  
HOLYOKE        FAIR      86  68  54 SE9       30.08F                  
FORT MORGAN    FAIR      91  54  27 NW9       30.10F                  
$$

COZ086-089-092>099-282000-
...SOUTHEAST COLORADO...
  
CITY           SKY/WX    TMP DP  RH WIND       PRES   REMARKS
PUEBLO         FAIR      86  62  44 VRB6      30.10F                  
LA JUNTA       FAIR      87  63  44 E7        30.08F                  
LAMAR          FAIR      87  65  47 SE9       30.05F                  
SPRINGFIELD      N/A     83  67  58 S10G17    30.10F                  
$$
  

Return to Home page


Western Regional Climate Center, wrcc@dri.edu